[[{"header":{"parameterUnit":"m.s-1","parameterCategory":1,"la1":30.2991,"la2":30.254,"lo1":-89.0895,"lo2":-89.0444,"dy":0.0017,"dx":0.0017,"nx":28,"ny":28,"refTime":"2026-03-03T03:00:00:Z","depth":0,"parameterNumber":2,"parameterNumberName":"U-component_of_WINDS"},"data":[0,0,0,0,0,0,0,0,0,0,0,0,0,0,0,0,0,0,0,0,0,0,0,0,0,0,0,0,0,0,0,0,0,0,0,0,0,0,0,0,0,0,0,0,0,0,0,0,0,0,0,0,0,0,0,0,0,0,-3.3935,-3.3935,0,-3.3918,-3.3917,-3.3917,-3.3835,-3.3834,-3.3832,-3.383,-3.3812,-3.3813,-3.3815,0,0,0,0,0,0,0,0,0,0,0,0,0,-3.3902,-3.3903,-3.3935,-3.3935,-3.3935,-3.3918,-3.3917,-3.3917,-3.3836,-3.3833,-3.3831,-3.3829,-3.3812,-3.3813,-3.3815,0,0,0,0,0,0,0,0,0,0,0,0,0,-3.3904,-3.3903,-3.3935,-3.3892,-3.3888,-3.3918,-3.3917,-3.3917,-3.3836,-3.3833,-3.383,-3.3828,-3.3811,-3.3813,-3.3815,-3.3885,0,0,-3.3821,-3.3822,0,0,0,0,0,0,0,0,-3.3904,-3.3905,-3.3899,-3.3895,-3.3891,-3.3876,-3.3899,-3.3906,-3.3837,-3.3856,-3.383,-3.3826,-3.3836,-3.3835,-3.3838,-3.3884,-3.3883,-3.3821,-3.3822,-3.3823,-3.3824,0,0,0,0,0,0,0,-3.3904,-3.3905,-3.3928,-3.3899,-3.3894,-3.3875,-3.3872,-3.39,-3.3862,-3.3854,-3.3848,-3.3847,-3.3833,-3.3837,-3.3837,-3.3883,-3.3821,-3.3823,-3.3824,-3.3825,-3.3989,-3.3993,0,0,0,0,0,0,-3.3909,-3.3906,-3.3929,-3.3928,-3.389,-3.3878,-3.3874,-3.3884,-3.3862,-3.3855,-3.385,-3.3843,-3.3835,-3.3835,-3.3836,-3.3919,-3.3823,-3.3825,-3.3826,-3.3986,-3.399,-3.3994,0,0,0,0,0,0,-3.3909,-3.3912,-3.393,-3.3915,-3.3916,-3.3881,-3.3892,-3.3885,-3.3888,-3.3858,-3.3851,-3.386,-3.3832,-3.3834,-3.3874,-3.3917,-3.3826,-3.3828,-3.3983,-3.3987,-3.3992,-3.4083,0,0,0,0,0,0,-3.3908,-3.3912,-3.3937,-3.3916,-3.3917,-3.3967,-3.3895,-3.3886,-3.3892,-3.3884,-3.3866,-3.3861,-3.383,-3.3872,-3.3876,-3.3918,-3.3829,-3.3978,-3.3985,-3.399,-3.4076,-3.409,-3.4103,0,0,0,0,0,-3.3907,-3.3963,-3.3939,-3.3942,-3.3947,-3.3969,-3.397,-3.3933,-3.3896,-3.3921,-3.3903,-3.3861,-3.3912,-3.3877,-3.3881,-3.3924,-3.3976,-3.3983,-3.399,-3.407,-3.4088,-3.4102,0,0,0,0,0,0,-3.3988,-3.3959,-3.3932,-3.3982,-3.3979,-3.3955,-3.3986,-3.3953,-3.396,-3.3951,-3.3907,-3.3904,-3.3952,-3.3942,-3.3903,-3.3993,-3.3937,-3.3946,-3.3997,-3.4013,-3.4026,-3.4027,-3.3831,0,0,0,0,0,-3.4012,-3.4032,-3.4006,-3.4053,-3.4053,-3.402,-3.4028,-3.4001,-3.3996,-3.3994,-3.3978,-3.3975,-3.3991,-3.4001,-3.4014,-3.4075,-3.4072,-3.4108,-3.4121,-3.4132,-3.4139,-3.4175,-3.4191,-3.4017,-3.4017,-3.4017,0,0,-3.4061,-3.4048,-3.4063,-3.4069,-3.4063,-3.4086,-3.4019,-3.4045,-3.4062,-3.3998,-3.4035,-3.4025,-3.4019,-3.4071,-3.4093,-3.4064,-3.4187,-3.4141,-3.415,-3.4151,-3.4184,-3.42,-3.4215,-3.4022,-3.4021,-3.402,0,0,-3.4162,-3.4154,-3.4193,-3.419,-3.4183,-3.4162,-3.4172,-3.4154,-3.4145,-3.4183,-3.4136,-3.4157,-3.4183,-3.4182,-3.4185,-3.4292,-3.4255,-3.4298,-3.4366,-3.4401,-3.4415,-3.4427,-3.4466,-3.4481,-3.4305,-3.4306,-3.4306,0,-3.4223,-3.4255,-3.4217,-3.4248,-3.4253,-3.4198,-3.4239,-3.4238,-3.4235,-3.4241,-3.4209,-3.4245,-3.4237,-3.429,-3.4316,-3.432,-3.4332,-3.4298,-3.4416,-3.4427,-3.4438,-3.4475,-3.449,-3.4311,-3.431,-3.431,-3.4309,0,-3.4332,-3.4356,-3.4389,-3.4389,-3.4399,-3.4434,-3.4404,-3.4418,-3.4392,-3.4375,-3.4417,-3.4406,-3.4417,-3.4428,-3.4401,-3.4478,-3.4461,-3.4424,-3.4366,-3.446,-3.4495,-3.4509,-3.4318,-3.4316,-3.4315,-3.4314,0,0,-3.4478,-3.4462,-3.4475,-3.4476,-3.4467,-3.4485,-3.452,-3.4532,-3.4546,-3.4548,-3.4577,-3.4604,-3.4571,-3.4574,-3.4548,-3.4579,-3.4668,-3.4538,-3.4537,-3.4563,-3.4754,-3.4782,-3.4799,-3.4644,-3.4647,-3.4649,-3.4755,0,-3.4576,-3.4633,-3.4603,-3.4665,-3.4688,-3.464,-3.4671,-3.467,-3.4657,-3.4675,-3.466,-3.4681,-3.4634,-3.4637,-3.4665,-3.4651,-3.4705,-3.4643,-3.4672,-3.4673,-3.4674,-3.4817,-3.4845,-3.4946,-3.4768,-3.477,-3.4772,0,-3.4695,-3.4704,-3.4769,-3.476,-3.4768,-3.4796,-3.4807,-3.4825,-3.4825,-3.4813,-3.482,-3.4789,-3.4825,-3.477,-3.482,-3.4779,-3.479,-3.4785,-3.4788,-3.4788,-3.4727,-3.4821,-3.4977,-3.4992,-3.4792,-3.4791,-3.4789,0,-3.4796,-3.4825,-3.4868,-3.4871,-3.4861,-3.4883,-3.488,-3.4877,-3.4887,-3.4897,-3.4904,-3.4919,-3.4926,-3.4939,-3.4913,-3.4875,-3.4968,-3.491,-3.496,-3.4961,-3.498,-3.4979,-3.514,-3.4988,-3.4988,-3.4988,-3.4987,0,-3.4907,-3.4949,-3.4915,-3.4941,-3.4988,-3.4955,-3.5003,-3.4995,-3.4994,-3.5019,-3.4979,-3.5004,-3.4968,-3.4991,-3.4971,-3.5017,-3.5021,-3.5014,-3.5008,-3.5017,-3.5018,-3.5022,-3.5014,-3.4992,-3.4991,-3.499,-3.4989,0,-3.5027,-3.5005,-3.505,-3.5039,-3.5037,-3.5073,-3.5064,-3.5089,-3.5075,-3.5109,-3.5115,-3.5093,-3.5118,-3.5094,-3.5117,-3.5104,-3.5166,-3.515,-3.5166,-3.5162,-3.5213,-3.5209,-3.5382,-3.5403,-3.5239,-3.524,-3.5242,0,-3.5098,-3.513,-3.5123,-3.5138,-3.5138,-3.5162,-3.5174,-3.5145,-3.5158,-3.5164,-3.5189,-3.5211,-3.5227,-3.5269,-3.5256,-3.5275,-3.5259,-3.5319,-3.5261,-3.5271,-3.5261,-3.5259,-3.5263,-3.533,-3.5332,-3.5333,-3.5335,0,-3.5227,-3.5217,-3.5235,-3.5251,-3.5267,-3.5278,-3.5286,-3.53,-3.5271,-3.5289,-3.5315,-3.5328,-3.5353,-3.5376,-3.5392,-3.539,-3.5359,-3.5354,-3.5366,-3.5375,-3.5383,-3.5381,-3.5198,-3.5349,-3.5347,-3.5346,-3.5346,-3.5345,-3.5325,-3.5352,-3.5353,-3.5376,-3.538,-3.539,-3.5414,-3.5406,-3.5427,-3.5445,-3.5428,-3.546,-3.5463,-3.5481,-3.5484,-3.551,-3.5485,-3.5503,-3.5507,-3.5512,-3.552,-3.5381,-3.5513,-3.5512,-3.5512,-3.5511,-3.5511,0,-3.5453,-3.5452,-3.5474,-3.5488,-3.5508,-3.5478,-3.5487,-3.5505,-3.5534,-3.554,-3.5558,-3.559,-3.5613,-3.5605,-3.5626,-3.5649,-3.5635,-3.5655,-3.5653,-3.5653,-3.554,-3.5528,-3.5666,-3.5666,-3.5666,-3.5666,-3.5666,-3.5666,-3.5521,-3.5567,-3.5557,-3.5606,-3.5605,-3.5637,-3.5645,-3.5655,-3.566,-3.5698,-3.5718,-3.5712,-3.5714,-3.5736,-3.5757,-3.5754,-3.5764,-3.579,-3.5782,-3.5676,-3.5661,-3.5646,-3.5634,-3.5792,-3.5792,-3.5892,-3.5893,-3.5894]},{"header":{"parameterUnit":"m.s-1","parameterCategory":1,"la1":30.2991,"la2":30.254,"lo1":-89.0895,"lo2":-89.0444,"dy":0.0017,"dx":0.0017,"nx":28,"ny":28,"refTime":"2026-03-03T03:00:00:Z","depth":0,"parameterNumber":3,"parameterNumberName":"V-component_of_WINDS"},"data":[0,0,0,0,0,0,0,0,0,0,0,0,0,0,0,0,0,0,0,0,0,0,0,0,0,0,0,0,0,0,0,0,0,0,0,0,0,0,0,0,0,0,0,0,0,0,0,0,0,0,0,0,0,0,0,0,0,0,0.3297,0.3297,0,0.3312,0.3313,0.3313,0.3399,0.3402,0.3404,0.3406,0.3419,0.3418,0.3416,0,0,0,0,0,0,0,0,0,0,0,0,0,0.3342,0.3341,0.3297,0.3297,0.3297,0.3312,0.3313,0.3313,0.3399,0.3402,0.3404,0.3407,0.342,0.3418,0.3416,0,0,0,0,0,0,0,0,0,0,0,0,0,0.3337,0.3341,0.3297,0.3342,0.3347,0.3312,0.3313,0.3313,0.3399,0.3402,0.3405,0.3408,0.3421,0.3418,0.3416,0.3339,0,0,0.3409,0.3408,0,0,0,0,0,0,0,0,0.3337,0.3335,0.3335,0.3339,0.3344,0.3357,0.3334,0.3322,0.3398,0.3379,0.3406,0.3409,0.3396,0.3396,0.3392,0.3339,0.334,0.3409,0.3407,0.3406,0.3405,0,0,0,0,0,0,0,0.3337,0.3335,0.3303,0.3335,0.334,0.3362,0.3365,0.3332,0.337,0.3381,0.3387,0.3388,0.3399,0.3394,0.3393,0.334,0.3409,0.3407,0.3405,0.3404,0.3228,0.3225,0,0,0,0,0,0,0.3331,0.3334,0.3303,0.3304,0.3348,0.3359,0.3362,0.335,0.337,0.3376,0.3385,0.3392,0.3397,0.3396,0.3394,0.3306,0.3406,0.3404,0.3403,0.3231,0.3227,0.3224,0,0,0,0,0,0,0.3332,0.3328,0.3302,0.3321,0.3319,0.3355,0.3341,0.3348,0.3344,0.3374,0.3381,0.3373,0.3399,0.3397,0.3353,0.3308,0.3403,0.3401,0.3235,0.323,0.3225,0.3129,0,0,0,0,0,0,0.3333,0.3327,0.3298,0.332,0.3318,0.326,0.3338,0.3346,0.3339,0.3348,0.3364,0.337,0.3401,0.3356,0.335,0.3306,0.3399,0.3239,0.3233,0.3227,0.3136,0.3121,0.3109,0,0,0,0,0,0.3334,0.3269,0.3296,0.3292,0.3282,0.3257,0.3256,0.3294,0.3335,0.3307,0.3327,0.3369,0.3314,0.335,0.3345,0.3299,0.3242,0.3234,0.3227,0.3143,0.3124,0.3109,0,0,0,0,0,0,0.324,0.3273,0.3303,0.3243,0.3247,0.3272,0.3236,0.3274,0.3265,0.3274,0.3321,0.3324,0.3272,0.3282,0.3322,0.3227,0.3285,0.3277,0.3223,0.3206,0.3192,0.3191,0.3397,0,0,0,0,0,0.3213,0.319,0.322,0.3164,0.3165,0.32,0.3191,0.322,0.3226,0.3227,0.3244,0.3247,0.3231,0.3219,0.3205,0.3139,0.3144,0.3105,0.3091,0.308,0.3071,0.3038,0.3022,0.3199,0.32,0.32,0,0,0.3155,0.317,0.3153,0.3146,0.3152,0.3128,0.3201,0.3172,0.3154,0.3223,0.3182,0.3195,0.3202,0.3146,0.3122,0.3152,0.3024,0.307,0.3061,0.3059,0.3029,0.3012,0.2997,0.3194,0.3195,0.3196,0,0,0.3038,0.3047,0.3003,0.3008,0.3018,0.3042,0.3032,0.3052,0.3063,0.3023,0.3075,0.3055,0.3025,0.3029,0.3027,0.2914,0.2954,0.2909,0.2836,0.2803,0.2789,0.2777,0.2737,0.2723,0.29,0.29,0.29,0,0.2965,0.2931,0.2975,0.2943,0.2939,0.3002,0.2958,0.2961,0.2965,0.2961,0.2994,0.296,0.2969,0.2916,0.2889,0.2885,0.2875,0.2906,0.2788,0.2776,0.2765,0.2728,0.2713,0.2895,0.2895,0.2896,0.2896,0,0.2842,0.2817,0.2781,0.2785,0.2777,0.2738,0.2777,0.2763,0.2794,0.2815,0.2775,0.2788,0.278,0.2769,0.2798,0.2721,0.2739,0.2779,0.2839,0.2742,0.2708,0.2694,0.2887,0.2889,0.289,0.2892,0,0,0.2663,0.2695,0.268,0.2684,0.27,0.2682,0.2648,0.2641,0.2629,0.263,0.2603,0.2578,0.2616,0.2613,0.2644,0.2615,0.2526,0.2659,0.266,0.2634,0.2443,0.2412,0.2395,0.2553,0.2551,0.2549,0.2442,0,0.2552,0.2495,0.2535,0.2472,0.2451,0.2512,0.2482,0.2489,0.2508,0.2493,0.2515,0.2496,0.2548,0.2547,0.2521,0.2542,0.2488,0.2551,0.2528,0.2527,0.2524,0.2377,0.2344,0.2243,0.2429,0.2427,0.2425,0,0.2414,0.2411,0.2346,0.2369,0.2362,0.2334,0.2332,0.2317,0.2326,0.2343,0.2341,0.238,0.2348,0.2407,0.2365,0.2406,0.24,0.2409,0.2406,0.2405,0.2469,0.2372,0.2211,0.2196,0.2405,0.2406,0.2408,0,0.2291,0.2271,0.223,0.2231,0.2257,0.2236,0.2246,0.2259,0.2253,0.2251,0.2247,0.2241,0.2237,0.2232,0.2268,0.2308,0.2221,0.2283,0.2234,0.2233,0.2212,0.2212,0.2048,0.2208,0.2208,0.2208,0.2208,0,0.2162,0.212,0.2176,0.215,0.2105,0.2152,0.2106,0.2123,0.2134,0.2113,0.2165,0.2144,0.2194,0.2178,0.2206,0.2167,0.2165,0.2178,0.2185,0.2173,0.2171,0.2168,0.2176,0.2204,0.2205,0.2206,0.2207,0,0.2017,0.2052,0.2012,0.2041,0.2047,0.2013,0.2037,0.2015,0.2039,0.2012,0.2009,0.2046,0.203,0.2066,0.2055,0.2075,0.2019,0.2038,0.2016,0.2022,0.197,0.1975,0.1798,0.1777,0.195,0.1949,0.1947,0,0.1932,0.1901,0.1928,0.1918,0.1925,0.1909,0.1904,0.1949,0.1941,0.1952,0.1928,0.1918,0.1911,0.1884,0.191,0.1902,0.1922,0.1861,0.1921,0.1909,0.1921,0.1922,0.192,0.1848,0.1845,0.1844,0.1842,0,0.1778,0.1798,0.1788,0.1785,0.1778,0.1778,0.1781,0.177,0.1819,0.1808,0.1793,0.1789,0.1779,0.1768,0.1767,0.1777,0.1817,0.1824,0.1812,0.1798,0.1786,0.1792,0.1982,0.1827,0.1829,0.183,0.183,0.1831,0.166,0.1637,0.1652,0.1641,0.1649,0.1651,0.1632,0.1655,0.1644,0.1641,0.1668,0.1648,0.1661,0.1664,0.167,0.1655,0.1683,0.1666,0.1661,0.1656,0.1648,0.1789,0.1655,0.1656,0.1656,0.1656,0.1657,0,0.1509,0.1523,0.1512,0.1516,0.1507,0.1548,0.1555,0.1544,0.1526,0.1535,0.1529,0.1513,0.1503,0.1529,0.1523,0.1506,0.1525,0.1503,0.1505,0.1506,0.1623,0.1634,0.1488,0.1488,0.1489,0.1489,0.1489,0.1489,0.1429,0.1392,0.1414,0.1382,0.1396,0.1378,0.1378,0.1381,0.1389,0.1369,0.1362,0.1379,0.1395,0.1391,0.1384,0.1392,0.1388,0.1359,0.1373,0.1482,0.1498,0.1514,0.1524,0.1358,0.1358,0.1258,0.1257,0.1257]}]]